Погода в Мармаре

Турция     40°35′25″N   27°33′48″E
темп.,
°C
ветер,
м/с
пор.,
м/с
влажн.,
%
обл.,
%
осадки,
мм/ч
давл.,
гПа
погр.,
м
15 апреля, чт
чт1500:00+12сз349056 0.3 101660
03:00+11св56905 0.3 1016237
06:00+11всв66875 0.0 1016277
09:00+11св65869 0.0 1018366
12:00+11св668510 0.0 1018327
15:00+12ссв45815 0.0 1017215
18:00+12св778416 0.0 1016356
21:00+11всв8884100 0.0 1017342
16 апреля, пт
пт1600:00+10св6684100 0.0 1018428
03:00+10ссв668470 0.0 1018472
06:00+10св6683100 0.0 1019614
09:00+10всв888077 0.0 1020728
12:00+11всв777991 0.0 1020754
15:00+11всв6776100 0.0 1019460
18:00+12всв5878100 0.0 1019443
21:00+11св101079100 0.0 1020499
17 апреля, сб
сб1700:00+11всв7878100 0.0 1019453
03:00+11всв8980100 0.0 1018500
06:00+11всв8978100 0.0 1017567
09:00+11всв91080100 0.0 1017503
12:00+11всв101087100 2.9 1017468
15:00+12всв91084100 2.9 1015539
18:00+12св91186100 0.0 1013403
21:00+11св91090100 0.0 1012388
18 апреля, вс
вс1800:00+11ссв6691100 0.0 1012402
03:00+11ссв3390100 0.1 1012324
06:00+11св4388100 0.1 1013252
09:00+12всв338562 0.1 1013251
12:00+11св4389100 0.0 1014186
15:00+12св5588100 0.0 1013148
18:00+13всв4586100 0.0 101383
21:00+13всв3389100 0.1 101339
19 апреля, пн
пн1900:00+13св129167 0.0 101225
03:00+13ю2395100 0.5 101129
06:00+13ююз3499100 6.3 100922
09:00+13ююв2299100 16.7 100816
12:00+14в2395100 4.1 100539
15:00+14з339240 6.0 100455
18:00+13зсз46904 3.6 1003101
21:00+14зюз61077100 7.2 1004162